[[{"header":{"parameterUnit":"m.s-1","parameterCategory":1,"la1":30.2991,"la2":30.254,"lo1":-89.0895,"lo2":-89.0444,"dy":0.0017,"dx":0.0017,"nx":28,"ny":28,"refTime":"2025-04-27T21:00:00:Z","depth":0,"parameterNumber":2,"parameterNumberName":"U-component_of_WINDS"},"data":[0,0,0,0,0,0,0,0,0,0,0,0,0,0,0,0,0,0,0,0,0,0,0,0,0,0,0,0,0,0,0,0,0,0,0,0,0,0,0,0,0,0,0,0,0,0,0,0,0,0,0,0,0,0,0,0,0,0,0.9433,0.9433,0,0.9409,0.9409,0.9409,0.934,0.9338,0.9337,0.9335,0.9312,0.9313,0.9314,0,0,0,0,0,0,0,0,0,0,0,0,0,0.942,0.9421,0.9433,0.9433,0.9433,0.9409,0.9409,0.9409,0.934,0.9338,0.9336,0.9334,0.9312,0.9313,0.9314,0,0,0,0,0,0,0,0,0,0,0,0,0,0.9414,0.9421,0.9434,0.9396,0.9392,0.9409,0.9409,0.9409,0.934,0.9338,0.9336,0.9334,0.9312,0.9313,0.9314,0.9367,0,0,0.9318,0.9318,0,0,0,0,0,0,0,0,0.9415,0.9415,0.9402,0.9398,0.9394,0.9375,0.9396,0.9395,0.9341,0.936,0.9335,0.9332,0.9335,0.9334,0.9335,0.9366,0.9365,0.9318,0.9319,0.9319,0.932,0,0,0,0,0,0,0,0.9415,0.9415,0.9424,0.9401,0.9397,0.938,0.9377,0.9395,0.9361,0.9358,0.9353,0.9351,0.9333,0.9334,0.9334,0.9365,0.9318,0.9319,0.932,0.932,0.9435,0.9437,0,0,0,0,0,0,0.9421,0.9416,0.9425,0.9423,0.9399,0.9382,0.9378,0.9384,0.936,0.9355,0.9353,0.9348,0.9333,0.9333,0.9333,0.9391,0.9319,0.932,0.9321,0.9433,0.9436,0.9438,0,0,0,0,0,0,0.9421,0.9422,0.9426,0.9418,0.9417,0.9385,0.9391,0.9384,0.9385,0.9356,0.935,0.936,0.9331,0.9331,0.9358,0.9389,0.9321,0.9322,0.943,0.9434,0.9437,0.951,0,0,0,0,0,0,0.9421,0.9423,0.9443,0.9419,0.9418,0.9452,0.9393,0.9385,0.9387,0.938,0.9362,0.9356,0.9329,0.9357,0.936,0.939,0.9323,0.9427,0.9432,0.9436,0.9504,0.9515,0.9525,0,0,0,0,0,0.9421,0.9465,0.9444,0.9445,0.9442,0.9454,0.9453,0.942,0.939,0.9409,0.939,0.9357,0.9386,0.936,0.9363,0.9394,0.9425,0.9431,0.9436,0.95,0.9513,0.9524,0,0,0,0,0,0,0.9494,0.9461,0.9438,0.9476,0.9468,0.9442,0.9465,0.9436,0.9437,0.9431,0.9391,0.9387,0.942,0.941,0.9382,0.9442,0.94,0.9406,0.9448,0.946,0.947,0.9471,0.9324,0,0,0,0,0,0.9514,0.9526,0.9497,0.9534,0.9531,0.9499,0.9503,0.9478,0.9469,0.9465,0.9449,0.9441,0.9448,0.9454,0.9459,0.9503,0.9497,0.9525,0.9535,0.9544,0.9549,0.957,0.9581,0.9455,0.9455,0.9455,0,0,0.9557,0.9541,0.9551,0.9548,0.9539,0.9552,0.9497,0.9513,0.9522,0.9468,0.9492,0.9479,0.9468,0.9504,0.9518,0.9496,0.9583,0.955,0.9557,0.9558,0.9576,0.9588,0.9599,0.9459,0.9458,0.9458,0,0,0.9641,0.963,0.9658,0.965,0.9636,0.9615,0.9622,0.96,0.9589,0.9612,0.9571,0.9581,0.9595,0.9588,0.9586,0.9666,0.9634,0.9669,0.9721,0.9742,0.9751,0.976,0.9787,0.9797,0.9674,0.9674,0.9675,0,0.9696,0.9713,0.9677,0.9695,0.9694,0.9645,0.9672,0.9666,0.9656,0.9656,0.9631,0.9646,0.9635,0.9667,0.9686,0.9687,0.9693,0.967,0.9753,0.9761,0.9768,0.9793,0.9804,0.9679,0.9678,0.9678,0.9677,0,0.978,0.9793,0.9817,0.9806,0.9808,0.9832,0.9798,0.9805,0.978,0.9761,0.9784,0.9769,0.9769,0.9775,0.9752,0.9804,0.979,0.976,0.9716,0.9785,0.9808,0.9817,0.9684,0.9683,0.9682,0.9681,0,0,0.991,0.9877,0.9887,0.988,0.9861,0.987,0.9891,0.989,0.9895,0.989,0.9905,0.9917,0.9888,0.9886,0.9861,0.9879,0.9941,0.9846,0.9845,0.9863,0.9995,1.0017,1.0028,0.992,0.9922,0.9923,0.9995,0,0.9988,1.002,0.9987,1.0026,1.0036,0.9988,1.0006,0.9996,0.9978,0.9984,0.9965,0.9973,0.9935,0.9934,0.9949,0.993,0.9966,0.9924,0.9933,0.9934,0.9936,1.004,1.0064,1.0133,1.0004,1.0005,1.0006,0,1.0083,1.0079,1.0119,1.0095,1.0098,1.0114,1.011,1.0117,1.0104,1.009,1.0087,1.0056,1.0074,1.0032,1.0055,1.0027,1.0029,1.002,1.0022,1.002,0.9974,1.0041,1.0154,1.0164,1.002,1.0019,1.0018,0,1.0171,1.0177,1.0201,1.0197,1.017,1.0182,1.0172,1.0157,1.0158,1.0154,1.0154,1.0153,1.0153,1.0153,1.0122,1.0095,1.0149,1.0105,1.0137,1.0138,1.015,1.015,1.0264,1.0154,1.0153,1.0153,1.0153,0,1.0261,1.0287,1.024,1.0254,1.0281,1.0243,1.0271,1.0255,1.0242,1.0252,1.0212,1.0223,1.0183,1.0189,1.0166,1.0188,1.0188,1.0177,1.017,1.018,1.0181,1.0179,1.0173,1.0156,1.0155,1.0155,1.0154,0,1.0364,1.0334,1.0356,1.0328,1.0322,1.0343,1.0319,1.0331,1.031,1.0324,1.0325,1.0293,1.0298,1.0268,1.0268,1.0252,1.0285,1.0271,1.0289,1.0284,1.0318,1.0315,1.0435,1.0448,1.033,1.0332,1.0333,0,1.0423,1.0441,1.0414,1.0418,1.0409,1.0416,1.0416,1.0379,1.0381,1.0366,1.038,1.0382,1.0381,1.0392,1.0368,1.0368,1.0353,1.0395,1.0352,1.0361,1.0351,1.035,1.0351,1.0403,1.0405,1.0406,1.0407,0,1.0529,1.0513,1.0514,1.051,1.0511,1.0506,1.0498,1.0504,1.0464,1.0468,1.0472,1.0471,1.047,1.0472,1.0467,1.0456,1.0425,1.042,1.0427,1.0437,1.0446,1.044,1.0312,1.0418,1.0416,1.0416,1.0415,1.0415,1.061,1.0623,1.0606,1.0609,1.0599,1.0592,1.0601,1.0581,1.0584,1.0579,1.0558,1.0565,1.0551,1.054,1.0532,1.0538,1.0518,1.0529,1.0531,1.0534,1.0539,1.0446,1.0537,1.0537,1.0536,1.0536,1.0536,0,1.0713,1.0699,1.0702,1.0691,1.0693,1.0663,1.0652,1.0656,1.0663,1.0652,1.0651,1.0655,1.0656,1.0633,1.0631,1.064,1.0625,1.064,1.0639,1.0636,1.0558,1.0551,1.0652,1.0652,1.0652,1.0652,1.0652,1.0652,1.0767,1.0786,1.0768,1.0782,1.0768,1.0774,1.0771,1.0765,1.0755,1.0761,1.0761,1.0745,1.0729,1.0725,1.0725,1.0717,1.0718,1.0738,1.0726,1.0653,1.0642,1.0631,1.0625,1.0739,1.0739,1.0803,1.0804,1.0805]},{"header":{"parameterUnit":"m.s-1","parameterCategory":1,"la1":30.2991,"la2":30.254,"lo1":-89.0895,"lo2":-89.0444,"dy":0.0017,"dx":0.0017,"nx":28,"ny":28,"refTime":"2025-04-27T21:00:00:Z","depth":0,"parameterNumber":3,"parameterNumberName":"V-component_of_WINDS"},"data":[0,0,0,0,0,0,0,0,0,0,0,0,0,0,0,0,0,0,0,0,0,0,0,0,0,0,0,0,0,0,0,0,0,0,0,0,0,0,0,0,0,0,0,0,0,0,0,0,0,0,0,0,0,0,0,0,0,0,3.3026,3.3027,0,3.3089,3.309,3.309,3.3065,3.3064,3.3062,3.3061,3.312,3.3122,3.3125,0,0,0,0,0,0,0,0,0,0,0,0,0,3.2878,3.2881,3.3026,3.3027,3.3027,3.3089,3.309,3.309,3.3065,3.3064,3.3062,3.306,3.3119,3.3122,3.3125,0,0,0,0,0,0,0,0,0,0,0,0,0,3.2941,3.2881,3.3026,3.3022,3.3023,3.3089,3.309,3.3091,3.3066,3.3064,3.3061,3.3059,3.3117,3.3122,3.3126,3.3197,0,0,3.3139,3.3141,0,0,0,0,0,0,0,0,3.2938,3.2947,3.3022,3.3023,3.3023,3.3067,3.3059,3.3126,3.3066,3.3049,3.3061,3.3058,3.3103,3.3109,3.3125,3.32,3.3202,3.314,3.3142,3.3144,3.3146,0,0,0,0,0,0,0,3.2933,3.2944,3.305,3.3023,3.3024,3.3016,3.3022,3.3071,3.3088,3.3051,3.3049,3.3057,3.3103,3.3121,3.3126,3.3203,3.314,3.3144,3.3146,3.3148,3.3337,3.3339,0,0,0,0,0,0,3.293,3.294,3.3048,3.3052,3.2974,3.302,3.3028,3.3055,3.3087,3.309,3.3059,3.3056,3.3115,3.3121,3.3128,3.3212,3.3144,3.3148,3.3151,3.3335,3.3338,3.334,0,0,0,0,0,0,3.2927,3.294,3.3046,3.2996,3.3009,3.3025,3.3056,3.3057,3.3075,3.3094,3.3096,3.3075,3.3113,3.3122,3.318,3.3214,3.315,3.3154,3.3332,3.3336,3.3339,3.3381,0,0,0,0,0,0,3.2922,3.2939,3.2967,3.2997,3.3012,3.3098,3.3058,3.306,3.3084,3.308,3.3109,3.3111,3.3112,3.3174,3.3184,3.3219,3.3158,3.3329,3.3333,3.3338,3.3377,3.3386,3.3394,0,0,0,0,0,3.2917,3.2975,3.2969,3.2982,3.3048,3.3101,3.3109,3.311,3.3087,3.3114,3.3126,3.311,3.3209,3.318,3.3192,3.3228,3.3327,3.3332,3.3337,3.3373,3.3384,3.3393,0,0,0,0,0,0,3.2947,3.2979,3.2972,3.3042,3.3069,3.3096,3.3131,3.3122,3.3155,3.315,3.3149,3.3155,3.3215,3.3227,3.3194,3.3297,3.3264,3.3272,3.3287,3.3298,3.3306,3.33,3.3161,0,0,0,0,0,3.2962,3.3004,3.3029,3.3088,3.3103,3.3115,3.3138,3.3137,3.3164,3.3174,3.319,3.3215,3.3252,3.3276,3.331,3.3379,3.3384,3.341,3.3418,3.3425,3.3431,3.3467,3.3478,3.3358,3.3358,3.3358,0,0,3.2993,3.3016,3.3042,3.3095,3.3116,3.3157,3.3124,3.317,3.3199,3.318,3.3236,3.3249,3.3277,3.334,3.3369,3.3352,3.3466,3.3432,3.3437,3.344,3.3474,3.3485,3.3495,3.3361,3.3361,3.336,0,0,3.3069,3.3092,3.3143,3.3165,3.3198,3.3206,3.3218,3.3247,3.3255,3.3312,3.3298,3.3333,3.3396,3.3416,3.3435,3.352,3.3506,3.3531,3.3574,3.3609,3.3618,3.3627,3.3655,3.3666,3.3538,3.3538,3.3538,0,3.3103,3.3167,3.317,3.3217,3.324,3.3227,3.3278,3.3298,3.334,3.3355,3.3336,3.3416,3.3433,3.3501,3.3521,3.3538,3.355,3.3527,3.3617,3.3626,3.3633,3.366,3.3671,3.3541,3.354,3.354,3.354,0,3.3205,3.3249,3.3287,3.3329,3.3356,3.3405,3.3414,3.3441,3.3438,3.3447,3.3504,3.3525,3.3563,3.358,3.3577,3.3646,3.3635,3.3617,3.3583,3.3647,3.3673,3.3683,3.3545,3.3544,3.3543,3.3542,0,0,3.33,3.3346,3.3359,3.3378,3.3413,3.3446,3.3493,3.3533,3.3555,3.3584,3.3622,3.3677,3.366,3.3681,3.368,3.3712,3.3776,3.369,3.369,3.3703,3.3852,3.3864,3.3876,3.3768,3.377,3.3771,3.3849,0,3.3379,3.3464,3.3469,3.3544,3.3584,3.3573,3.3614,3.3639,3.3649,3.3683,3.3693,3.3731,3.3708,3.372,3.375,3.3761,3.3805,3.3756,3.38,3.3802,3.3792,3.3889,3.3902,3.3974,3.3859,3.3861,3.3862,0,3.3481,3.3515,3.3596,3.3625,3.3642,3.3679,3.3715,3.3749,3.3776,3.3781,3.3805,3.38,3.3846,3.3812,3.3874,3.3841,3.386,3.3868,3.3871,3.3873,3.3834,3.3892,3.3997,3.4007,3.3878,3.3877,3.3875,0,3.354,3.3606,3.3663,3.368,3.3716,3.3742,3.3757,3.3783,3.3807,3.3838,3.3852,3.3888,3.3907,3.3934,3.3937,3.3913,3.4,3.3966,3.4003,3.4003,3.402,3.4018,3.4127,3.4035,3.4035,3.4035,3.4035,0,3.3625,3.3675,3.369,3.3725,3.3779,3.3784,3.3836,3.385,3.3873,3.3909,3.3901,3.3934,3.3938,3.3971,3.3975,3.4025,3.4034,3.4037,3.4037,3.4037,3.4036,3.4048,3.4042,3.4038,3.4037,3.4037,3.4036,0,3.37,3.3713,3.3773,3.3803,3.3812,3.385,3.3875,3.3907,3.3917,3.3962,3.3972,3.3987,3.4026,3.4033,3.4079,3.4081,3.414,3.4136,3.4132,3.413,3.4166,3.4162,3.4284,3.43,3.42,3.4201,3.4201,0,3.3753,3.3791,3.3825,3.385,3.3867,3.3906,3.3931,3.3936,3.3962,3.3996,3.4023,3.4062,3.4094,3.4156,3.4169,3.4204,3.4199,3.424,3.4204,3.4203,3.4198,3.4195,3.4198,3.4246,3.4247,3.4248,3.4249,0,3.3844,3.3849,3.3885,3.3924,3.3954,3.3984,3.4012,3.4032,3.4042,3.407,3.4111,3.4135,3.4183,3.4221,3.4256,3.4269,3.426,3.426,3.427,3.4269,3.4264,3.4266,3.4148,3.4257,3.4256,3.4255,3.4255,3.4255,3.3908,3.3941,3.3971,3.4011,3.4034,3.4061,3.4092,3.4107,3.4142,3.4182,3.4183,3.4228,3.4253,3.4299,3.4316,3.4349,3.4336,3.4351,3.4354,3.4357,3.436,3.4261,3.4356,3.4356,3.4355,3.4355,3.4355,0,3.3997,3.4016,3.4054,3.4095,3.4127,3.4118,3.4149,3.4175,3.4215,3.4241,3.4273,3.4319,3.4356,3.4373,3.4409,3.4432,3.4429,3.4441,3.4438,3.4441,3.4371,3.4358,3.4444,3.4444,3.4443,3.4443,3.4443,3.4443,3.4048,3.4102,3.4111,3.4176,3.4194,3.4239,3.4257,3.4282,3.4302,3.4355,3.4387,3.4399,3.442,3.4458,3.4491,3.4494,3.4507,3.4521,3.4523,3.4456,3.4447,3.4438,3.4426,3.4524,3.4524,3.4591,3.4591,3.4592]}]]